Starlink 32774

operational
NORAD ID: 62737 Int'l Des: 2025-014 Owner: SPXS Country: US Constellation: starlink
LEOCIRCULAR

Starlink 32774について

説明を読み込み中...

リアルタイム位置

3D地球を読み込み中...

次回通過

高度履歴

Altitude vs Time

uPlot chart will show altitude changes over time

軌道要素

1 62737U 25014C 25305.62088372 .00036377 00000-0 13244-2 0 9990
2 62737 42.9982 160.8798 0000570 237.8793 122.2003 15.27592603 43637
Epoch: Nov 1, 2025 • Age: 11 hours

現在のステータス

高度 482.5 km
速度 7.63 km/s
衛星直下点 18.78°N, 107.8°E
打ち上げ日 Jan 21, 2025
運用期間 0.7 years
タイプ internet

技術仕様

分類 Payload
質量 730.00 kg
乾燥質量 700.00 kg
総質量 730.00 kg
長さ 0.30 m
直径 4.10 m
スパン 29.00 m
形状 Box + pan
製造者 SPXS
バスタイプ Starlink V2M
フェーズステータス In Orbit
所有者/国 SPXS/US

大規模コンステレーション

Loading constellations...